Regional Weather Roundup
Issued by NWS

Home | Current Version | Previous Version | Text Only | Print | Product List | Glossary Off
Versions: 1 2 3 4 5 6 7 8 9 10 11 12 13 14 15 16 17 18 19 20 21 22 23 24 25 26 27 28 29 30 31 32 33 34 35 36 37 38 39 40 41 42 43 44 45 46 47 48 49 50

000
ASUS43 KFSD 261302
RWRSD

WEATHER ROUNDUP FOR SOUTH DAKOTA
NATIONAL WEATHER SERVICE SIOUX FALLS SD
800 AM CDT SUN MAR 26 2017

NOTE: "FAIR" INDICATES FEW OR NO CLOUDS BELOW 12,000 FEET WITH NO
SIGNIFICANT WEATHER AND/OR OBSTRUCTIONS TO VISIBILITY.


SDZ001>005-009-010-012>017-261400-
NORTHWEST AND NORTH CENTRAL SOUTH DAKOTA

CITY           SKY/WX    TMP DP  RH WIND       PRES   REMARKS
BUFFALO          N/A     43  38  82 N14       29.83R
FAITH            N/A     36  36 100 MISG      29.88S
MOBRIDGE       CLOUDY    40  36  86 CALM      29.91R
$$

SDZ012>016-024>037-041>051-057-063-072>074-261400-
SOUTHWEST AND SOUTH CENTRAL SOUTH DAKOTA

CITY           SKY/WX    TMP DP  RH WIND       PRES   REMARKS
RAPID CTY ARPT LGT RAIN  40  35  83 N22       29.84R
PIERRE         CLOUDY    40  37  89 E6        29.90R
CUSTER         CLOUDY    40  33  76 CALM      29.85R
ELLSWORTH AFB  LGT RAIN  40  38  93 N20       29.85R
PHILIP         LGT RAIN  39  38  96 NE8       29.88R
PINE RIDGE     CLOUDY    45  32  60 N3        29.84R
SPEARFISH      CLOUDY    39  37  93 NW9       29.91R
WINNER         CLOUDY    40  38  93 SE6       29.89R FOG
$$

SDZ004>011-016>023-039-040-261400-
NORTHEAST SOUTH DAKOTA

CITY           SKY/WX    TMP DP  RH WIND       PRES   REMARKS
ABERDEEN       CLOUDY    35  33  92 E6        29.95R FOG
WATERTOWN      CLOUDY    34  34 100 NE5       29.93S FOG     WCI  30
BROOKINGS      MIX PCPN  35  35 100 NE7       29.92S FOG     WCI  29
SISSETON         N/A     35  35 100 CALM      29.97R
$$

SDZ017-020-022-023-036>040-048>070-261400-
SOUTHEAST SOUTH DAKOTA

CITY           SKY/WX    TMP DP  RH WIND       PRES   REMARKS
SIOUX FALLS    CLOUDY    38  37  97 N5        29.92S FOG
HURON          CLOUDY    38  38 100 NE7       29.94R
CHAMBERLAIN    CLOUDY    40  40  99 E3        29.91R
MITCHELL       FOG       38  38 100 E6        29.93S VSB 1/4
YANKTON        CLOUDY    37  36  93 NE3       29.91S
$$

ABBREVIATIONS USED IN REMARKS
   TC - TEMPERATURE IN CELSIUS
  WCI - WIND CHILL INDEX
   HX - HEAT INDEX
  VSB - VISIBILITY




USA.gov is the U.S. government's official web portal to all federal, state and local government web resources and services.